Dewpoint
54 44 40 37 23 26 24 20 21 18 17 17 34 43 45 46 47 46 56 57 63 67 71 72 72 72 71 71 72 72 72 73 73 73 73 73 73 73 73 73 72 72 72 71 70 70 71 71 71
51 40 34 28 24 17 12 22 19 18 21 16 39 45 45 43 52 55 55 62 65 69 70 71 71 71 71 71 71 72 72 73 73 73 73 73 73 73 73 73 72 72 72 71 70 70 70 71 71
36 39 29 29 21 16 14 17 16 17 18 16 18 46 49 45 54 55 59 63 66 69 70 70 71 71 71 71 71 72 72 72 72 72 73 73 73 73 73 72 72 72 72 71 71 70 70 70 70
31 31 32 25 21 19 17 17 18 16 15 16 34 49 53 55 54 55 62 63 66 69 70 70 70 71 71 71 71 72 72 72 72 72 73 73 73 72 72 72 72 72 72 71 70 70 70 69 69
30 29 26 24 24 22 19 17 18 17 18 17 21 46 53 55 59 61 62 63 65 68 70 70 70 70 71 71 71 71 71 71 72 72 72 72 72 72 72 71 72 72 72 71 71 70 69 68 68
26 28 24 22 21 22 21 22 19 17 16 15 26 52 54 57 59 62 62 62 66 68 69 70 70 70 70 71 70 70 70 71 71 71 72 72 71 71 71 71 71 71 71 71 70 69 68 68 67
25 24 23 23 22 22 21 22 18 16 14 13 26 53 53 53 59 60 61 65 67 68 69 69 70 70 70 69 69 69 70 70 71 71 71 71 70 70 70 71 71 71 70 70 69 68 68 68 67
25 24 25 22 18 21 23 23 19 17 15 20 30 52 51 53 57 64 65 66 67 67 68 68 70 70 69 69 69 69 69 70 70 70 70 69 69 69 70 70 70 70 69 69 69 68 67 67 66
27 23 20 20 21 20 23 23 20 17 15 17 48 55 54 56 62 63 63 65 66 67 67 68 68 69 69 69 69 69 69 69 69 70 69 68 68 68 69 69 69 69 69 68 68 67 67 66 66
25 24 16 20 20 20 22 21 21 18 18 19 41 53 54 57 58 59 59 62 64 65 66 67 67 68 69 69 68 67 68 69 69 69 69 68 67 66 68 68 68 68 68 67 67 67 66 66 63
26 19 16 17 21 23 23 22 21 18 17 20 21 54 53 55 55 55 56 59 61 64 65 66 66 67 67 68 68 68 68 68 68 69 69 66 66 66 66 66 67 66 67 65 65 65 64 62 61
34 32 27 19 20 19 19 20 19 20 21 21 20 53 53 53 54 54 55 58 60 64 65 65 66 66 66 67 66 67 67 67 67 68 67 66 66 65 64 64 65 65 65 63 63 62 62 61 61
29 30 32 31 29 25 21 20 17 17 19 20 20 23 54 54 54 55 54 58 60 61 64 65 65 65 65 66 66 66 66 67 67 67 67 66 65 65 63 63 64 63 63 62 61 61 61 60 60
36 36 35 35 33 32 27 23 16 15 17 19 20 20 46 54 54 56 57 57 59 59 62 65 65 65 65 66 66 66 66 66 66 66 67 65 65 64 63 63 63 63 63 61 61 60 60 59 58
25 28 33 36 35 36 29 25 20 20 16 19 20 20 24 54 57 56 58 58 58 58 60 63 65 65 65 66 65 66 66 66 65 65 65 65 63 62 62 63 63 63 63 61 60 59 58 58 57
22 29 31 26 33 36 28 21 23 23 17 17 20 20 20 24 47 56 60 59 58 58 59 61 62 63 63 64 64 64 64 64 64 64 65 65 63 63 61 62 62 62 62 61 60 59 58 57 57
24 27 31 31 31 34 29 26 24 24 18 18 19 19 19 22 27 34 57 60 59 58 59 59 59 61 61 62 62 63 62 63 63 63 63 64 63 62 61 61 62 62 61 61 59 58 57 57 57
20 24 28 32 36 36 30 27 26 24 16 17 17 19 20 20 24 24 26 58 61 60 60 59 58 59 60 61 60 60 61 61 62 61 62 63 63 62 62 61 62 62 61 60 59 58 59 58 57
20 23 25 29 36 34 35 36 34 30 21 18 19 20 21 21 21 24 24 34 59 61 61 61 60 59 59 60 60 59 59 60 60 61 61 62 63 62 61 61 62 62 61 60 60 59 58 58 60
18 23 27 29 37 36 34 35 34 23 20 18 15 18 19 21 20 21 21 22 50 60 62 61 61 60 59 58 59 58 58 60 60 61 61 62 62 62 61 61 62 62 62 61 61 59 59 59 60
19 28 31 28 34 35 33 30 29 29 27 18 14 16 17 19 19 19 20 20 22 54 61 62 62 62 60 59 61 64 63 63 63 62 61 62 62 62 62 62 61 62 62 62 62 61 59 59 60
17 19 25 24 33 32 35 30 31 29 29 25 15 14 17 17 18 19 19 19 20 33 56 62 62 62 62 60 60 61 61 60 62 62 62 63 64 63 63 62 63 63 63 62 62 63 62 61 60
22 18 21 21 26 31 29 32 32 35 32 32 34 34 31 18 18 17 18 17 20 27 36 59 62 62 63 61 60 60 61 62 61 63 63 63 65 65 64 63 63 64 64 63 63 63 63 62 61
33 24 18 19 25 24 27 31 29 32 32 33 34 35 37 38 29 19 26 34 37 48 48 53 60 62 63 63 61 60 60 62 63 63 64 63 65 66 66 65 64 64 65 65 64 64 63 62 62
31 20 16 16 23 22 29 28 31 32 34 33 33 33 35 38 41 42 44 46 47 48 52 58 60 62 63 64 64 63 61 61 64 64 63 64 64 65 67 67 66 65 65 65 66 65 64 63 63
29 26 17 14 17 19 29 26 31 35 35 34 30 28 28 33 35 37 40 45 48 51 53 56 60 62 65 66 66 66 63 63 64 64 65 66 65 65 66 67 67 67 67 66 66 66 65 64 63
30 27 32 25 28 25 27 32 34 34 35 34 33 31 29 27 32 33 33 38 42 46 48 52 53 55 57 61 64 64 65 65 65 65 65 65 66 67 67 66 67 67 67 67 66 66 65 65 64
31 32 28 26 13 16 26 30 30 33 35 31 32 34 32 29 27 30 30 32 36 42 45 46 48 50 53 57 60 61 60 61 63 65 65 65 66 67 67 66 66 67 67 67 67 67 66 66 65
24 24 29 31 26 19 21 24 35 35 36 33 31 32 32 29 29 28 30 29 31 34 41 43 44 45 48 51 55 58 59 60 61 61 61 61 62 63 64 65 66 66 66 66 67 66 66 66 65
27 22 28 22 19 18 23 24 32 31 31 35 31 31 32 28 28 25 27 27 30 33 36 38 41 42 43 47 48 51 56 57 56 56 56 57 58 60 61 62 64 65 65 65 65 65 65 65 65
Lifted_Index
9 10 9 8 5 4 2 2 2 2 3 3 2 0 -1 -1 -1 -1 -0 -0 -0 -1 -2 -2 -2 -2 -1 -1 -1 -2 -2 -2 -2 -2 -2 -3 -3 -3 -3 -3 -2 -2 -2 -2 -2 -2 -2 -2 -2
10 10 9 7 5 3 2 2 3 2 3 3 2 -0 -1 -1 -1 -1 -0 -0 -0 -1 -2 -2 -2 -2 -1 -1 -1 -2 -2 -2 -2 -2 -3 -3 -3 -3 -2 -2 -2 -2 -2 -2 -1 -1 -1 -1 -2
9 9 8 6 4 3 3 3 3 2 3 3 2 -0 -2 -2 -1 -1 -0 -0 -1 -2 -2 -2 -2 -2 -1 -1 -2 -2 -2 -2 -2 -3 -3 -3 -3 -2 -2 -2 -2 -2 -2 -1 -1 -1 -1 -1 -1
9 9 7 5 4 4 4 4 4 3 2 3 2 -1 -3 -3 -2 -1 -0 -0 -1 -2 -2 -2 -2 -1 -2 -2 -2 -2 -2 -2 -2 -2 -3 -3 -2 -2 -2 -2 -2 -2 -2 -1 -1 -0 0 0 0
9 8 6 4 4 4 4 5 4 3 2 3 2 -1 -3 -3 -2 -1 -0 -0 -1 -2 -2 -2 -2 -2 -2 -2 -2 -2 -2 -2 -2 -2 -2 -2 -2 -2 -2 -2 -2 -2 -2 -1 -1 0 1 1 1
8 7 5 3 3 4 5 5 5 3 3 3 2 -1 -3 -3 -2 -1 -0 -0 -1 -1 -2 -2 -2 -2 -2 -2 -1 -1 -1 -1 -2 -2 -2 -2 -2 -1 -1 -2 -2 -2 -2 -1 -0 1 1 1 2
7 6 5 4 3 4 4 5 5 4 3 4 3 -0 -3 -3 -2 -1 -0 -0 -1 -1 -2 -2 -2 -2 -2 -2 -1 -1 -1 -1 -2 -2 -2 -1 -1 -1 -1 -1 -1 -1 -1 -0 0 1 1 2 2
7 6 4 4 3 4 4 5 5 5 4 4 2 -1 -3 -3 -2 -1 -0 -0 -1 -1 -1 -2 -2 -2 -2 -2 -1 -1 -1 -1 -1 -2 -2 -1 -1 -1 -1 -1 -1 -1 -0 0 1 1 2 2 2
7 6 4 4 4 4 4 5 5 5 5 3 1 -2 -3 -3 -3 -2 -1 -0 -0 -1 -1 -1 -2 -2 -2 -2 -1 -1 -1 -1 -1 -1 -1 -1 -0 -0 -0 -1 -1 -0 0 1 1 2 2 2 2
6 5 5 6 6 5 4 5 5 5 5 3 -0 -3 -3 -3 -3 -2 -1 0 -0 -0 -1 -1 -2 -2 -2 -2 -1 -1 -1 -1 -1 -1 -1 -0 0 0 0 -0 -0 0 1 1 2 2 2 3 3
6 5 6 7 8 7 6 5 5 5 5 4 2 -2 -3 -3 -3 -2 -1 0 0 -0 -1 -1 -2 -2 -2 -2 -2 -1 -1 -1 -1 -1 -1 -0 0 1 1 0 0 0 1 2 2 3 3 3 4
6 6 6 8 9 8 7 6 5 4 5 6 5 1 -2 -3 -2 -1 -0 1 1 0 -0 -1 -1 -1 -2 -2 -2 -1 -1 -1 -1 -0 -0 0 1 1 1 1 1 1 1 2 3 4 4 4 5
7 7 7 8 9 9 8 6 5 4 5 6 7 5 1 -2 -2 -2 -1 1 1 1 0 -0 -1 -1 -1 -2 -2 -1 -1 -0 -0 -0 -0 0 1 1 1 2 2 1 2 2 3 4 5 5 6
8 8 8 8 8 8 7 7 5 4 4 6 7 6 3 -1 -2 -2 -1 -0 1 1 1 0 -0 -1 -1 -1 -1 -1 -1 -0 -0 0 0 0 1 2 2 2 2 2 2 3 4 4 5 6 6
9 8 8 8 8 8 7 6 5 4 5 5 6 7 5 1 -2 -2 -2 -1 -1 0 1 1 0 -0 -1 -1 -1 -1 -1 -1 -0 0 0 0 1 2 2 2 3 2 2 3 4 5 6 6 7
9 8 7 7 8 7 6 5 5 5 5 5 6 7 6 2 -1 -3 -3 -2 -2 -2 -1 0 1 1 0 -0 -1 -1 -1 -1 -0 0 0 1 1 2 2 2 3 2 2 3 3 4 6 6 7
9 7 6 7 7 7 6 5 5 6 6 6 6 6 6 4 1 -1 -2 -3 -3 -3 -2 -2 -1 0 0 0 0 0 -0 -0 0 0 0 1 1 1 2 2 2 2 2 2 2 3 5 5 6
8 8 8 8 7 6 5 5 6 6 7 7 6 6 6 5 3 2 1 -1 -3 -3 -4 -3 -3 -2 -1 0 1 1 1 1 1 1 1 0 1 1 2 2 2 2 2 2 2 2 3 3 3
9 9 9 9 7 6 5 5 6 6 6 6 6 6 6 5 5 5 4 2 -1 -3 -4 -4 -4 -4 -3 -2 -0 1 2 1 1 1 1 0 0 1 1 1 1 1 1 1 1 1 1 1 2
9 9 9 8 6 5 5 5 5 5 5 6 6 6 6 6 5 5 5 4 2 -2 -3 -4 -4 -4 -4 -4 -3 -1 0 1 1 1 1 0 0 0 0 0 0 0 0 0 -0 -0 -0 0 0
7 7 6 6 5 4 4 5 5 5 5 5 6 6 6 5 5 5 5 5 3 1 -2 -3 -4 -4 -4 -4 -4 -3 -2 -1 -0 -0 0 -0 -1 -1 -1 -1 -1 -1 -1 -1 -1 -1 -1 -1 -1
4 5 4 4 3 2 2 3 5 5 4 4 5 5 5 5 5 5 4 4 4 3 0 -2 -3 -3 -4 -4 -4 -4 -3 -3 -2 -2 -1 -1 -2 -2 -2 -3 -3 -3 -3 -2 -2 -2 -2 -2 -1
2 3 3 3 2 1 1 2 3 4 4 4 4 4 5 5 5 5 4 4 4 4 2 -1 -3 -3 -3 -4 -4 -4 -4 -4 -3 -3 -3 -3 -3 -3 -3 -4 -4 -5 -5 -5 -4 -4 -4 -3 -3
1 1 2 2 2 1 0 1 2 3 3 3 3 3 4 4 4 4 4 4 4 3 2 -1 -3 -4 -4 -3 -3 -4 -4 -4 -4 -4 -3 -3 -4 -4 -4 -4 -5 -5 -6 -6 -6 -6 -5 -5 -5
0 1 1 1 1 1 0 0 1 2 2 2 2 3 3 3 3 3 3 3 3 2 -0 -2 -4 -4 -5 -4 -4 -4 -4 -4 -4 -4 -4 -4 -4 -4 -5 -5 -6 -6 -6 -6 -6 -6 -6 -6 -6
0 0 0 0 0 0 0 -0 1 1 1 1 2 2 2 2 2 2 2 2 2 0 -2 -4 -5 -5 -5 -5 -5 -5 -5 -5 -5 -5 -5 -5 -4 -4 -4 -5 -6 -6 -7 -7 -7 -6 -6 -6 -7
-0 0 0 0 0 0 -0 -0 0 0 0 0 1 2 2 3 3 2 2 1 1 -0 -2 -4 -5 -6 -6 -6 -6 -6 -6 -5 -5 -4 -4 -5 -4 -4 -4 -5 -5 -6 -6 -7 -7 -6 -6 -6 -7
0 0 0 0 0 -0 -0 -0 0 1 0 1 2 3 3 4 5 5 4 3 2 1 -0 -2 -4 -4 -4 -4 -5 -5 -5 -5 -4 -3 -4 -4 -4 -5 -5 -5 -5 -6 -6 -6 -6 -6 -6 -6 -6
2 1 1 1 0 -0 -0 0 2 2 2 2 3 5 6 6 7 7 7 6 6 5 3 2 1 0 -0 -1 -2 -3 -3 -3 -3 -3 -3 -4 -4 -5 -5 -6 -6 -6 -6 -6 -6 -6 -6 -6 -6
3 2 2 1 0 -0 -0 1 3 4 3 3 5 6 7 7 8 8 8 8 8 7 6 5 5 4 3 2 1 -1 -2 -2 -2 -2 -3 -3 -4 -5 -6 -7 -7 -7 -7 -6 -6 -6 -5 -5 -5